Location: ???????
(55.6192°N, 39.3451°E)
Time: 21:29:33
(UTC+00:00)

Daily predictions for brighter satellites

Satellite Brightness Start Highest point End
(mag) Time Altitude Azimuth Time Altitude Azimuth Time Altitude Azimuth
Cosmos 2333 Rocket 3.8 14:09:27 10° NW 14:13:25 19° N 14:17:23 10° NE
UNK 4.5 14:10:38 10° NNE 14:14:42 32° E 14:18:44 10° SSE
Cosmos 1328 Rocket 3.6 14:11:08 10° S 14:15:31 80° ESE 14:19:57 10° NNE
BREEZE-M DEB (TANK) 4.4 14:14:27 10° WSW 14:16:26 21° S 14:20:31 10° SE
Cosmos 2056 Rocket 3.7 14:16:33 10° SW 14:21:39 73° WNW 14:26:46 10° NNE
Cosmos 1980 Rocket 2.9 14:20:19 10° NNW 14:25:20 32° NE 14:30:21 10° E
USA 276 3.6 14:24:00 10° SW 14:25:41 19° S 14:27:30 10° ESE
Meteor 1-12 Rocket 4.2 14:20:39 10° NNW 14:26:19 73° ENE 14:31:58 10° SSE
SJ-12 3.9 14:25:00 10° SE 14:28:41 49° ENE 14:32:24 10° N
NOSS 2-1 (E) 2.9 14:26:47 10° NW 14:29:55 71° NE 14:33:46 10° ESE
Okean 3 4.4 14:27:00 10° SE 14:30:18 24° E 14:33:35 10° NNE
NOSS 2-1 (C) 2.8 14:27:12 10° NW 14:30:20 80° NE 14:34:12 10° SE
Meteor 1-16 Rocket 4.1 14:25:52 10° NNW 14:31:14 86° ENE 14:36:41 10° SSE
ARIANE 5 R/B 2.5 14:28:08 10° SSE 14:33:19 68° ENE 14:38:29 10° NNW
ATLAS 3B R/B 3.5 14:26:19 10° W 14:33:53 48° N 14:41:17 11° ENE
Cosmos 1703 2.8 14:31:17 10° S 14:34:33 66° E 14:37:51 10° NNE
ISS -2.6 14:33:07 10° SW 14:36:12 35° SSE 14:39:18 10° E
Cosmos 1934 Rocket 4.4 14:31:00 10° N 14:36:42 38° ENE 14:42:26 10° SE
Cosmos 2366 rocket 4.3 14:30:46 10° NNW 14:37:08 76° W 14:43:28 10° S
COSMO-SKYMED 1 4.2 14:37:09 11° ENE 14:39:01 14° E 14:41:11 10° ESE
Cosmos 2181 Rocket 4.1 14:33:01 10° S 14:39:04 61° E 14:45:17 10° NNE
YAOGAN 1 3.2 14:36:14 10° SE 14:40:00 31° ENE 14:43:46 10° N
NOSS 3-4 (A) 3.3 14:35:49 10° SW 14:41:07 67° SE 14:46:54 11° NE
NOSS 3-4 (C) 3.3 14:35:59 10° SW 14:41:19 67° SE 14:47:06 11° NE
Meteor 2-15 4.4 14:35:40 10° NNW 14:41:51 82° ENE 14:47:57 10° SSE
Cosmos 2219 Rocket 3.9 14:38:20 10° NW 14:41:58 17° N 14:45:34 10° NE
Cosmos 1331 Rocket 3.9 14:38:56 10° SSW 14:44:04 75° ESE 14:49:14 10° NNE
Cosmos 1697 Rocket 2.7 14:41:47 10° NNW 14:47:27 64° NE 14:53:04 10° SE
IRS-1C 4.1 14:42:55 10° SSE 14:48:15 85° ENE 14:53:37 10° NNW
SAR-Lupe-4 3.7 14:45:03 10° SE 14:48:32 52° ENE 14:52:03 10° N
Cosmos 1515 Rocket 3.5 14:44:14 10° S 14:48:39 76° E 14:53:06 10° NNE
NOSS 3-1 (A) 3.9 14:44:27 10° NW 14:50:40 60° NNE 14:58:37 10° ESE
Meteor 1-23 Rocket 4.2 14:46:27 10° S 14:52:05 86° ESE 14:57:44 10° NNE
Cosmos 2239 Rocket 4.5 14:47:45 10° N 14:54:03 70° ENE 15:00:15 10° SSE
Cosmos 2360 Rocket 3.8 14:50:46 10° NNW 14:54:39 19° NNE 14:57:40 13° NE
COSMOS 2455 2.8 14:49:14 10° NW 14:55:17 68° NE 15:01:17 10° SE
NOSS 2-1 (D) 3.5 14:52:30 10° WNW 14:55:41 63° SW 14:59:39 10° SE
Landsat 7 4.2 14:51:58 10° S 14:56:36 68° WSW 15:01:17 10° NNW
Cosmos 1833 Rocket 3.6 14:52:47 10° SSE 14:57:31 29° ESE 15:01:17 14° NE
Cosmos 1302 Rocket 4.3 14:54:43 10° S 14:59:47 50° ESE 15:04:54 10° NE
SL-16 R/B 2.8 14:55:26 10° NNE 15:01:36 73° WNW 15:07:44 10° SSW
NOSS 3-1 (C) 3.9 14:55:22 10° NW 15:01:55 88° NE 15:10:16 10° SE
SL-16 R/B 3.4 14:58:03 10° NNW 15:02:34 23° NNE 15:05:24 16° ENE
SMAP 4.1 15:01:01 10° S 15:05:33 51° W 15:10:08 10° NNW
Cosmos 1603 3.8 15:00:03 10° SW 15:05:42 83° NW 15:11:22 10° NNE
Cosmos 1953 4.4 15:03:18 10° NNW 15:06:31 28° W 15:09:43 10° SSW
Cosmos 1110 Rocket 4.2 15:02:21 10° SW 15:07:33 75° WNW 15:12:44 10° NNE
Cosmos 1733 Rocket 3.3 15:04:45 10° N 15:09:00 46° ENE 15:13:11 10° SE
Meteor 1-21 4.3 15:03:55 10° SSW 15:09:31 80° WNW 15:15:10 10° NNE
PSLV R/B 3.7 15:10:21 10° SE 15:14:19 44° ENE 15:18:17 10° N
Cosmos 1933 Rocket 4.3 15:10:12 10° NNW 15:14:30 55° W 15:18:45 10° S
Nadezhda 3 Rocket 4.0 15:09:31 10° S 15:15:33 61° E 15:21:40 10° NNE
CARTOSAT-1 3.9 15:14:06 10° SE 15:18:02 40° ENE 15:22:00 10° N
Cosmos 1943 4.1 15:15:31 10° WSW 15:20:55 44° NW 15:26:22 10° NNE
USA 229 DEB 4.3 15:14:38 10° WNW 15:21:08 46° N 15:26:04 20° ENE
USA 229 4.3 15:14:43 10° WNW 15:21:13 46° N 15:26:09 20° ENE
Cosmos 1992 Rocket 4.3 15:16:39 10° S 15:21:33 44° ESE 15:25:06 18° NE
CZ-2D R/B 4.1 15:21:08 10° S 15:24:07 41° W 15:27:06 10° NNW
CZ-2D R/B 3.1 15:20:56 10° SSE 15:24:43 69° ENE 15:28:33 10° NNW
Cosmos 1452 Rocket 3.7 15:21:43 10° SW 15:26:58 73° WNW 15:32:17 10° NNE
Cosmos 1486 Rocket 4.0 15:23:59 10° NNW 15:29:17 62° ENE 15:34:31 10° SE
Okean 2 3.6 15:26:05 10° SSW 15:29:55 66° WNW 15:33:46 10° N
NOSS 8 (A) 3.8 15:27:51 10° NW 15:30:44 82° NE 15:31:45 37° ESE
SPOT 1/Viking Rocket 3.9 15:28:32 10° S 15:33:39 69° WSW 15:38:48 10° NNW
Resurs 01 Rocket 1.8 15:31:14 10° SE 15:35:24 47° ENE 15:39:37 10° N
NOAA 6 3.9 15:31:22 10° SSE 15:36:26 67° ENE 15:41:33 10° NNW
BREEZE-M DEB (TANK) 4.2 15:33:57 10° SSW 15:36:35 29° SSE 15:38:22 23° ESE
Cosmos 2228 Rocket 3.7 15:33:27 10° SSE 15:37:26 33° E 15:37:58 32° ENE
Cosmos 1354 Rocket 4.4 15:32:29 10° NNW 15:37:28 41° NE 15:39:49 27° ESE
Cosmos 2237 Rocket 4.1 15:39:14 10° NW 15:42:58 17° N 15:45:56 12° NNE
USA 267 3.2 15:40:51 23° E 15:45:12 86° N 15:51:47 10° WNW
SJ-6B 3.8 15:47:32 26° NNE 15:47:32 26° NNE 15:49:24 10° N
Radarsat Rocket 3.9 15:41:07 10° SSE 15:47:07 87° WSW 15:53:00 10° NNW
Cosmos 2322 Rocket 3.3 15:45:01 10° NNW 15:49:44 26° NNE 15:50:39 25° NE
SL-16 R/B 4.0 15:46:17 10° WNW 15:50:41 22° NNW 15:54:36 12° NNE
RESURS DK-1 2.9 15:47:29 10° SW 15:51:24 54° NW 15:53:27 26° NNE
SJ-7 4.3 15:48:52 10° S 15:52:39 76° WSW 15:56:26 10° NNW
DNEPR-1 R/B 3.9 15:48:49 10° WSW 15:53:01 57° NW 15:54:50 31° NNE
ATLAS 5 CENTAUR R/B 2.4 15:51:33 10° WNW 15:54:24 27° N 15:55:01 25° N
Spot 4 Rocket 4.2 15:50:08 10° S 15:55:15 75° WSW 16:00:24 10° NNW
Terra 3.9 15:59:16 13° NNE 15:59:16 13° NNE 15:59:58 10° N
Cosmos 1777 Rocket 3.8 15:51:50 10° NNW 15:57:04 79° ENE 16:01:46 13° SSE
Cosmos 1605 Rocket 3.9 15:51:07 10° N 15:57:33 73° ENE 16:03:53 10° SSE
BREEZE-M DEB (TANK) 4.2 15:54:14 10° W 15:58:10 35° SSW 15:59:41 25° SE
USA 276 3.9 15:56:18 10° WSW 15:57:49 19° SSW 15:57:49 19° SSW
Resurs 1-3 4.2 15:54:47 10° S 15:59:02 57° W 16:03:18 10° NNW
Cosmos 2333 Rocket 3.0 15:54:20 10° NNW 15:59:31 33° NE 16:00:18 32° NE
USA 59 Rocket 2.3 15:58:25 10° WNW 16:01:03 20° SW 16:04:12 10° S
Okean 1-7 2.8 15:59:08 10° S 16:03:11 61° E 16:03:31 58° ENE
Cosmos 1818 4.5 15:58:59 10° NW 16:03:56 34° NNE 16:05:10 30° NE
Okean 3 4.5 16:02:44 10° SW 16:06:36 43° WNW 16:10:29 10° N
SPOT 5 3.9 16:09:31 27° NNE 16:09:31 27° NNE 16:12:01 10° N
Cosmos 1339 Rocket 4.5 16:02:36 10° SSW 16:08:45 81° WNW 16:14:52 10° N
Cosmos 1980 Rocket 2.2 16:04:17 10° NW 16:09:55 80° WSW 16:14:57 13° SSE
Cosmos 990 Rocket 4.0 16:04:56 10° NNW 16:10:08 59° ENE 16:11:20 47° ESE
Cosmos 1862 Rocket 3.4 16:07:31 10° S 16:11:56 84° E 16:14:03 31° NNE
ISS -2.7 16:09:28 10° WSW 16:12:25 39° SSW 16:12:25 39° SSW
COSMO-SKYMED 1 2.3 16:13:27 40° NNE 16:14:56 89° W 16:19:03 10° SSW
Cosmos 2369 3.6 16:09:53 10° NNW 16:15:35 74° NE 16:17:41 40° SE
YAOGAN 1 3.8 16:11:44 10° S 16:15:45 41° W 16:19:50 10° NNW
CSL-04 Rocket 3.7 16:18:12 51° E 16:18:35 52° ENE 16:23:45 10° N
Cosmos 1908 Rocket 3.5 16:14:16 10° N 16:18:16 65° NE 16:18:16 65° NE
USA 305 3.8 16:15:06 10° SW 16:17:54 32° S 16:17:54 32° S
Cosmos 1174 4.5 16:14:20 10° NW 16:19:35 51° NNE 16:19:37 51° NE
CZ-4B R/B 4.1 16:22:03 31° NNE 16:22:03 31° NNE 16:25:41 10° N
Cosmos 1898 Rocket 4.4 16:16:57 10° NNW 16:21:02 33° NNE 16:21:02 33° NNE
DMSP B5D1-3 4.4 16:23:50 54° NE 16:24:47 67° ESE 16:29:50 10° S
ATLAS 3B R/B 3.3 16:18:20 10° WNW 16:26:06 54° NNE 16:28:32 41° ENE
CZ-4B DEB 4.4 16:26:40 50° NE 16:26:40 50° NE 16:31:41 10° N
CSL-04 Debris 4.2 16:26:31 56° ENE 16:26:42 57° ENE 16:32:03 10° N
Cosmos 1707 Rocket 3.6 16:22:35 10° SSW 16:26:53 75° WNW 16:28:20 41° N
Cosmos 2219 Rocket 3.4 16:23:09 10° NNW 16:27:26 26° NNE 16:27:26 26° NNE
SKYMED 2 4.5 16:24:00 12° N 16:27:55 48° WNW 16:32:06 10° SW
COSMOS 2428 4.3 16:25:56 10° NNW 16:30:05 20° NNE 16:30:16 20° NNE
Cosmos 1697 Rocket 4.4 16:26:08 10° NW 16:31:07 33° WSW 16:36:05 10° S
NOSS 3-4 (A) 3.9 16:26:48 10° W 16:32:14 51° NNW 16:34:20 36° NNE
NOSS 3-4 (C) 3.9 16:26:57 10° W 16:32:25 51° NNW 16:34:31 36° NNE
Aureole 1 Rocket 3.9 16:32:28 10° NNW 16:39:22 62° NE 16:39:46 60° ENE
Cosmos 2360 Rocket 3.0 16:35:03 10° NNW 16:39:25 35° NNE 16:39:25 35° NNE
COSMOS 2455 4.2 16:35:29 10° NW 16:40:56 36° WSW 16:46:22 10° S
Cosmos 1833 Rocket 2.8 16:35:23 10° SW 16:41:01 71° NW 16:42:59 41° NNE
Cosmos 2237 4.1 16:35:43 10° NW 16:41:28 84° NE 16:42:14 68° SE
Cosmos 1503 Rocket 4.4 16:36:20 10° NNW 16:41:30 62° WSW 16:44:18 27° S
NOSS 3-1 (A) 4.2 16:35:07 10° NW 16:41:50 65° SW 16:47:28 22° SSE
Cosmos 2082 Rocket 3.9 16:40:11 10° S 16:41:44 18° S 16:41:44 18° S
SL-16 R/B 2.4 16:42:10 10° NNW 16:47:15 57° NNE 16:47:15 57° NNE
USA 215 4.3 16:52:57 29° SSE 16:52:57 29° SSE 16:56:59 10° SSW
Meteor 1-24 Rocket 3.7 16:53:53 10° SSW 16:59:40 85° WNW 17:01:43 44° N
Cosmos 2100 Rocket 3.8 16:53:53 10° N 17:00:19 79° ENE 17:00:27 78° E
BREEZE-M DEB (TANK) 4.3 16:57:11 10° WSW 17:01:38 58° S 17:03:38 48° SE
Cosmos 1459 Rocket 4.0 17:00:26 10° N 17:05:32 63° N 17:05:32 63° N
Resurs 01 Rocket 3.5 17:08:12 10° SSW 17:11:58 28° W 17:15:46 10° NNW
USA 229 DEB 3.8 17:05:58 10° NW 17:13:04 71° NNE 17:13:29 69° NE
USA 229 3.8 17:06:02 10° NW 17:13:09 70° NNE 17:13:33 69° NE
Cosmos 2228 Rocket 4.4 17:11:20 10° SW 17:15:26 38° WNW 17:15:26 38° WNW
Meteor 2-5 Rocket 3.9 17:10:13 10° SSW 17:15:11 66° WSW 17:15:11 66° WSW
Cosmos 2173 Rocket 4.1 17:21:52 10° NNW 17:28:03 74° WNW 17:28:03 74° WNW
USA 267 3.5 17:28:12 58° SSW 17:28:31 58° SSW 17:34:59 10° WNW
Cosmos 2237 Rocket 4.1 17:25:01 10° NNW 17:27:44 19° N 17:27:44 19° N
USA 281 4.3 17:31:43 31° N 17:31:43 31° N 17:35:51 10° NNW
Terra 4.3 17:37:53 13° NNW 17:37:53 13° NNW 17:38:27 10° NNW
Cosmos 2322 Rocket 3.3 17:29:02 10° NNW 17:32:27 37° NNW 17:32:27 37° NNW
SL-16 R/B 4.3 17:33:15 10° NW 17:36:27 17° N 17:36:27 17° N
Cosmos 2333 Rocket 3.2 17:38:39 10° NW 17:42:19 41° NW 17:42:19 41° NW
Cosmos 2219 Rocket 4.1 18:07:03 10° NNW 18:09:08 23° NNW 18:09:08 23° NNW
ATLAS 3B R/B 3.4 18:09:35 10° NW 18:15:46 58° WNW 18:15:46 58° WNW
Cosmos 2360 Rocket 4.2 18:19:03 10° NW 18:21:09 23° NW 18:21:09 23° NW
SL-16 R/B 4.2 18:26:34 10° NW 18:29:07 24° WNW 18:29:07 24° WNW
ACS3 Solar Sail 4.5 23:17:58 10° NNE 23:18:19 12° NNE 23:18:19 12° NNE
